| time (UTC) | temp F | wind direction | speed MPH | gust MPH | rain 1hr in | rain 24hr in | rain mn in | humidity % | barometer mb |
| 20260506012016 | 61 | 255 | 1.0 | 4.0 | 0.00 | 0.42 | 0.42 | 71 | 1015.7 |
| 20260506011537 | 61 | 0 | 1.0 | 4.0 | 0.00 | 0.42 | 0.42 | 70 | 1015.6 |
| 20260506011018 | 61 | 55 | 1.0 | 4.0 | 0.00 | 0.42 | 0.42 | 70 | 1015.7 |
| 20260506010515 | 62 | 333 | 1.0 | 4.0 | 0.00 | 0.42 | 0.42 | 71 | 1015.6 |
| 20260506010030 | 62 | 28 | 1.0 | 4.0 | 0.00 | 0.42 | 0.42 | 70 | 1015.6 |
| 20260506005516 | 62 | 0 | 1.0 | 4.0 | 0.00 | 0.42 | 0.42 | 70 | 1015.6 |
| 20260506005017 | 62 | 0 | 0.0 | 4.0 | 0.00 | 0.42 | 0.42 | 69 | 1015.6 |
| 20260506004545 | 63 | 0 | 1.0 | 7.0 | 0.00 | 0.42 | 0.42 | 68 | 1015.6 |
| 20260506004015 | 63 | 0 | 0.0 | 7.0 | 0.00 | 0.42 | 0.42 | 68 | 1015.5 |
| 20260506003517 | 64 | 0 | 2.0 | 7.0 | 0.00 | 0.42 | 0.42 | 66 | 1015.4 |
| 20260506003039 | 64 | 0 | 1.0 | 5.0 | 0.00 | 0.42 | 0.42 | 67 | 1015.5 |
| 20260506002516 | 64 | 0 | 1.0 | 5.0 | 0.00 | 0.42 | 0.42 | 65 | 1015.4 |
| 20260506002019 | 64 | 73 | 1.0 | 4.0 | 0.00 | 0.42 | 0.42 | 65 | 1015.4 |
| 20260506001534 | 65 | 34 | 1.0 | 5.0 | 0.00 | 0.42 | 0.42 | 65 | 1015.4 |
| 20260506001016 | 65 | 340 | 1.0 | 5.0 | 0.00 | 0.42 | 0.42 | 65 | 1015.3 |
| 20260506000517 | 65 | 79 | 1.0 | 4.0 | 0.00 | 0.42 | 0.42 | 64 | 1015.5 |
| 20260506000033 | 65 | 12 | 1.0 | 5.0 | 0.00 | 0.42 | 0.42 | 66 | 1015.4 |
| 20260505235516 | 66 | 250 | 0.0 | 5.0 | 0.00 | 0.42 | 0.42 | 66 | 1015.3 |
| 20260505235016 | 66 | 360 | 1.0 | 6.0 | 0.00 | 0.42 | 0.42 | 65 | 1015.4 |
| 20260505234533 | 66 | 17 | 1.0 | 6.0 | 0.00 | 0.42 | 0.42 | 65 | 1015.4 |
| 20260505234016 | 66 | 320 | 1.0 | 5.0 | 0.00 | 0.42 | 0.42 | 65 | 1015.4 |
| 20260505233518 | 66 | 0 | 1.0 | 6.0 | 0.00 | 0.42 | 0.42 | 66 | 1015.5 |
| 20260505233030 | 67 | 225 | 2.0 | 6.0 | 0.00 | 0.42 | 0.42 | 65 | 1015.5 |
| 20260505232516 | 67 | 12 | 1.0 | 6.0 | 0.00 | 0.42 | 0.42 | 66 | 1015.5 |
| 20260505232016 | 66 | 0 | 1.0 | 7.0 | 0.00 | 0.42 | 0.42 | 66 | 1015.5 |
| 20260505231531 | 67 | 94 | 1.0 | 7.0 | 0.00 | 0.42 | 0.42 | 67 | 1015.5 |
| 20260505231015 | 67 | 0 | 1.0 | 7.0 | 0.00 | 0.42 | 0.42 | 67 | 1015.6 |
| 20260505230519 | 67 | 349 | 1.0 | 7.0 | 0.00 | 0.42 | 0.42 | 65 | 1015.7 |
| 20260505230044 | 66 | 300 | 2.0 | 7.0 | 0.00 | 0.42 | 0.42 | 63 | 1015.6 |
| 20260505225516 | 67 | 345 | 2.0 | 9.0 | 0.00 | 0.42 | 0.42 | 63 | 1015.8 |
| 20260505225033 | 67 | 76 | 1.0 | 9.0 | 0.00 | 0.42 | 0.42 | 64 | 1015.8 |
| 20260505224536 | 67 | 352 | 1.0 | 4.0 | 0.00 | 0.42 | 0.42 | 67 | 1015.8 |
| 20260505224015 | 68 | 281 | 1.0 | 8.0 | 0.00 | 0.42 | 0.42 | 63 | 1015.9 |
| 20260505223515 | 67 | 75 | 1.0 | 8.0 | 0.00 | 0.42 | 0.42 | 62 | 1015.9 |
| 20260505223033 | 67 | 309 | 2.0 | 8.0 | 0.00 | 0.42 | 0.42 | 60 | 1016.0 |
| 20260505222519 | 67 | 329 | 2.0 | 6.0 | 0.00 | 0.42 | 0.42 | 62 | 1016.0 |
| 20260505222013 | 67 | 332 | 2.0 | 6.0 | 0.00 | 0.42 | 0.42 | 62 | 1016.0 |
| 20260505221530 | 68 | 215 | 2.0 | 8.0 | 0.00 | 0.42 | 0.42 | 63 | 1016.1 |
| 20260505221016 | 67 | 333 | 2.0 | 9.0 | 0.00 | 0.42 | 0.42 | 61 | 1016.1 |
| 20260505220515 | 67 | 76 | 2.0 | 9.0 | 0.00 | 0.42 | 0.42 | 61 | 1016.2 |
| 20260505220041 | 67 | 49 | 1.0 | 8.0 | 0.00 | 0.42 | 0.42 | 63 | 1016.2 |
| 20260505215516 | 68 | 53 | 2.0 | 8.0 | 0.00 | 0.42 | 0.42 | 62 | 1016.2 |
| 20260505215020 | 69 | 114 | 1.0 | 6.0 | 0.00 | 0.42 | 0.42 | 60 | 1016.2 |
| 20260505214535 | 69 | 0 | 1.0 | 6.0 | 0.00 | 0.42 | 0.42 | 61 | 1016.2 |
| 20260505214016 | 68 | 5 | 2.0 | 6.0 | 0.00 | 0.42 | 0.42 | 61 | 1016.3 |
| 20260505213520 | 68 | 348 | 2.0 | 9.0 | 0.00 | 0.42 | 0.42 | 63 | 1016.2 |
| 20260505213036 | 69 | 327 | 2.0 | 9.0 | 0.00 | 0.42 | 0.42 | 61 | 1016.3 |
| 20260505212515 | 69 | 289 | 2.0 | 9.0 | 0.00 | 0.42 | 0.42 | 61 | 1016.4 |
| 20260505212016 | 69 | 105 | 1.0 | 7.0 | 0.00 | 0.42 | 0.42 | 60 | 1016.6 |
| 20260505211536 | 68 | 238 | 2.0 | 7.0 | 0.00 | 0.42 | 0.42 | 63 | 1016.5 |
| 20260505211016 | 69 | 298 | 1.0 | 6.0 | 0.00 | 0.42 | 0.42 | 61 | 1016.5 |
| 20260505210518 | 69 | 107 | 2.0 | 6.0 | 0.00 | 0.42 | 0.42 | 63 | 1016.5 |
| 20260505210032 | 69 | 186 | 2.0 | 5.0 | 0.00 | 0.42 | 0.42 | 66 | 1016.5 |
| 20260505205520 | 68 | 49 | 2.0 | 9.0 | 0.00 | 0.42 | 0.42 | 64 | 1016.6 |
| 20260505205016 | 68 | 41 | 3.0 | 9.0 | 0.00 | 0.42 | 0.42 | 61 | 1016.7 |
| 20260505204534 | 70 | 138 | 1.0 | 6.0 | 0.00 | 0.42 | 0.42 | 64 | 1016.6 |
| 20260505204017 | 67 | 69 | 2.0 | 6.0 | 0.00 | 0.42 | 0.42 | 64 | 1016.7 |
| 20260505203514 | 69 | 53 | 1.0 | 6.0 | 0.00 | 0.42 | 0.42 | 65 | 1016.6 |
| 20260505203034 | 69 | 172 | 2.0 | 6.0 | 0.00 | 0.42 | 0.42 | 63 | 1016.7 |
| 20260505202516 | 69 | 36 | 1.0 | 8.0 | 0.00 | 0.42 | 0.42 | 63 | 1016.7 |
| 20260505202016 | 68 | 24 | 2.0 | 8.0 | 0.00 | 0.42 | 0.42 | 65 | 1016.7 |
| 20260505201536 | 68 | 71 | 1.0 | 8.0 | 0.00 | 0.42 | 0.42 | 63 | 1016.7 |
| 20260505201015 | 68 | 19 | 1.0 | 8.0 | 0.00 | 0.42 | 0.42 | 65 | 1016.6 |
| 20260505200517 | 68 | 321 | 3.0 | 7.0 | 0.00 | 0.42 | 0.42 | 66 | 1016.6 |
| 20260505200032 | 68 | 347 | 1.0 | 7.0 | 0.00 | 0.42 | 0.42 | 64 | 1016.6 |
| 20260505195519 | 68 | 11 | 2.0 | 8.0 | 0.00 | 0.42 | 0.42 | 65 | 1016.6 |
| 20260505195016 | 68 | 22 | 2.0 | 8.0 | 0.00 | 0.42 | 0.42 | 61 | 1016.6 |
| 20260505194534 | 69 | 5 | 2.0 | 9.0 | 0.00 | 0.42 | 0.42 | 67 | 1016.7 |
| 20260505194016 | 68 | 72 | 1.0 | 9.0 | 0.00 | 0.42 | 0.42 | 64 | 1016.6 |
| 20260505193520 | 69 | 345 | 1.0 | 8.0 | 0.00 | 0.42 | 0.42 | 66 | 1016.8 |
| 20260505193038 | 69 | 51 | 1.0 | 8.0 | 0.00 | 0.42 | 0.42 | 66 | 1016.7 |
| 20260505192516 | 68 | 325 | 1.0 | 9.0 | 0.00 | 0.42 | 0.42 | 67 | 1016.8 |
| 20260505192017 | 67 | 0 | 1.0 | 9.0 | 0.00 | 0.42 | 0.42 | 68 | 1016.8 |
| 20260505191539 | 68 | 26 | 2.0 | 8.0 | 0.00 | 0.42 | 0.42 | 70 | 1016.9 |
| 20260505191016 | 68 | 35 | 1.0 | 5.0 | 0.00 | 0.42 | 0.42 | 66 | 1016.8 |
| 20260505190515 | 68 | 5 | 1.0 | 5.0 | 0.00 | 0.42 | 0.42 | 72 | 1016.7 |
| 20260505190039 | 69 | 28 | 1.0 | 5.0 | 0.00 | 0.42 | 0.42 | 68 | 1016.7 |
| 20260505185517 | 67 | 351 | 1.0 | 5.0 | 0.00 | 0.42 | 0.42 | 69 | 1016.7 |
| 20260505185016 | 67 | 334 | 1.0 | 9.0 | 0.00 | 0.42 | 0.42 | 71 | 1016.7 |
| 20260505184534 | 66 | 69 | 1.0 | 9.0 | 0.00 | 0.42 | 0.42 | 73 | 1016.8 |
| 20260505184013 | 65 | 349 | 2.0 | 9.0 | 0.00 | 0.42 | 0.42 | 72 | 1016.7 |
| 20260505183513 | 65 | 344 | 0.0 | 5.0 | 0.00 | 0.42 | 0.42 | 74 | 1016.8 |
| 20260505183031 | 64 | 347 | 1.0 | 5.0 | 0.00 | 0.42 | 0.42 | 74 | 1016.9 |
| 20260505182515 | 67 | 34 | 1.0 | 5.0 | 0.00 | 0.42 | 0.42 | 70 | 1016.8 |
| 20260505182015 | 67 | 24 | 2.0 | 5.0 | 0.00 | 0.42 | 0.42 | 71 | 1016.6 |
| 20260505181533 | 66 | 350 | 1.0 | 4.0 | 0.00 | 0.42 | 0.42 | 71 | 1016.8 |
| 20260505181014 | 65 | 18 | 1.0 | 3.0 | 0.00 | 0.42 | 0.42 | 74 | 1016.8 |
| 20260505180515 | 63 | 352 | 0.0 | 3.0 | 0.00 | 0.42 | 0.42 | 76 | 1016.7 |
| 20260505180039 | 62 | 343 | 1.0 | 3.0 | 0.00 | 0.42 | 0.42 | 76 | 1016.6 |
| 20260505175516 | 62 | 0 | 0.0 | 4.0 | 0.00 | 0.42 | 0.42 | 76 | 1016.7 |
| 20260505175014 | 62 | 24 | 1.0 | 4.0 | 0.00 | 0.42 | 0.42 | 77 | 1016.6 |
| 20260505174534 | 62 | 53 | 1.0 | 5.0 | 0.00 | 0.42 | 0.42 | 75 | 1016.5 |
| 20260505174014 | 63 | 336 | 1.0 | 5.0 | 0.00 | 0.42 | 0.42 | 74 | 1016.5 |
| 20260505173516 | 65 | 132 | 0.0 | 5.0 | 0.00 | 0.42 | 0.42 | 73 | 1016.3 |
| 20260505173034 | 65 | 5 | 1.0 | 10.0 | 0.00 | 0.42 | 0.42 | 75 | 1016.2 |
| 20260505172517 | 66 | 344 | 0.0 | 10.0 | 0.00 | 0.42 | 0.42 | 80 | 1016.2 |
| 20260505172015 | 64 | 360 | 2.0 | 10.0 | 0.00 | 0.42 | 0.42 | 79 | 1016.1 |
| 20260505171531 | 64 | 330 | 2.0 | 8.0 | 0.00 | 0.42 | 0.42 | 79 | 1016.2 |
| 20260505171015 | 64 | 57 | 0.0 | 3.0 | 0.00 | 0.42 | 0.42 | 83 | 1016.0 |
| 20260505170516 | 63 | 0 | 1.0 | 3.0 | 0.00 | 0.42 | 0.42 | 82 | 1016.0 |
| 20260505170037 | 63 | 0 | 0.0 | 3.0 | 0.00 | 0.42 | 0.42 | 82 | 1016.1 |
| 20260505165516 | 63 | 0 | 1.0 | 3.0 | 0.00 | 0.42 | 0.42 | 85 | 1016.0 |
| 20260505165016 | 63 | 36 | 0.0 | 3.0 | 0.00 | 0.42 | 0.42 | 87 | 1015.9 |
| 20260505164536 | 62 | 0 | 0.0 | 2.0 | 0.00 | 0.42 | 0.42 | 87 | 1015.8 |
| 20260505164016 | 61 | 0 | 0.0 | 2.0 | 0.00 | 0.42 | 0.42 | 88 | 1015.8 |
| 20260505163515 | 60 | 0 | 0.0 | 2.0 | 0.00 | 0.42 | 0.42 | 90 | 1015.8 |
| 20260505163039 | 60 | 0 | 0.0 | 2.0 | 0.00 | 0.42 | 0.42 | 91 | 1015.8 |
| 20260505162515 | 59 | 0 | 0.0 | 2.0 | 0.00 | 0.42 | 0.42 | 92 | 1015.8 |
| 20260505162016 | 59 | 0 | 0.0 | 2.0 | 0.00 | 0.42 | 0.42 | 92 | 1015.7 |
| 20260505161532 | 58 | 0 | 0.0 | 2.0 | 0.00 | 0.42 | 0.42 | 91 | 1015.7 |
| 20260505161015 | 59 | 0 | 0.0 | 4.0 | 0.00 | 0.42 | 0.42 | 91 | 1015.6 |
| 20260505160516 | 59 | 0 | 0.0 | 4.0 | 0.00 | 0.42 | 0.42 | 92 | 1015.5 |
| 20260505153042 | 58 | 0 | 0.0 | 3.0 | 0.00 | 0.42 | 0.42 | 95 | 1015.4 |
| 20260505152515 | 57 | 0 | 0.0 | 3.0 | 0.00 | 0.42 | 0.42 | 95 | 1015.3 |
| 20260505152020 | 57 | 0 | 0.0 | 2.0 | 0.00 | 0.42 | 0.42 | 95 | 1015.4 |
| 20260505151534 | 57 | 0 | 0.0 | 2.0 | 0.00 | 0.42 | 0.42 | 95 | 1015.4 |
| 20260505151015 | 57 | 0 | 0.0 | 1.0 | 0.01 | 0.42 | 0.42 | 96 | 1015.3 |
| 20260505150516 | 57 | 0 | 0.0 | 2.0 | 0.01 | 0.42 | 0.42 | 95 | 1015.4 |
| 20260505140515 | 55 | 5 | 0.0 | 2.0 | 0.23 | 0.41 | 0.41 | 95 | 1014.7 |
| 20260505125015 | 55 | 0 | 0.0 | 2.0 | 0.04 | 0.18 | 0.18 | 95 | 1014.3 |
| 20260505124537 | 55 | 136 | 0.0 | 2.0 | 0.05 | 0.18 | 0.18 | 95 | 1014.2 |
| 20260505124016 | 55 | 0 | 0.0 | 1.0 | 0.09 | 0.18 | 0.18 | 95 | 1014.2 |
| 20260505123515 | 55 | 0 | 0.0 | 1.0 | 0.10 | 0.18 | 0.18 | 94 | 1014.1 |
| 20260505123047 | 55 | 0 | 0.0 | 1.0 | 0.10 | 0.18 | 0.18 | 94 | 1014.2 |
| 20260505122518 | 55 | 0 | 0.0 | 1.0 | 0.10 | 0.18 | 0.18 | 94 | 1014.3 |
| 20260505122018 | 55 | 0 | 0.0 | 1.0 | 0.09 | 0.17 | 0.17 | 94 | 1014.3 |
| 20260505121535 | 55 | 0 | 0.0 | 1.0 | 0.09 | 0.17 | 0.17 | 95 | 1014.3 |
| 20260505121016 | 55 | 0 | 0.0 | 3.0 | 0.09 | 0.17 | 0.17 | 94 | 1014.3 |
| 20260505120516 | 54 | 136 | 0.0 | 3.0 | 0.09 | 0.17 | 0.17 | 94 | 1014.4 |
| 20260505120043 | 55 | 131 | 0.0 | 3.0 | 0.08 | 0.16 | 0.16 | 94 | 1014.3 |
| 20260505115517 | 55 | 109 | 0.0 | 2.0 | 0.08 | 0.16 | 0.16 | 94 | 1014.3 |
| 20260505115015 | 55 | 0 | 0.0 | 2.0 | 0.06 | 0.14 | 0.14 | 94 | 1014.4 |
| 20260505114531 | 55 | 0 | 0.0 | 2.0 | 0.04 | 0.12 | 0.12 | 94 | 1014.2 |
| 20260505114016 | 55 | 5 | 0.0 | 2.0 | 0.00 | 0.08 | 0.08 | 94 | 1014.2 |
| 20260505113517 | 55 | 0 | 0.0 | 0.0 | 0.00 | 0.08 | 0.08 | 94 | 1014.0 |
| 20260505113030 | 55 | 0 | 0.0 | 1.0 | 0.00 | 0.08 | 0.08 | 94 | 1014.0 |
| 20260505112518 | 55 | 0 | 0.0 | 1.0 | 0.00 | 0.08 | 0.08 | 94 | 1014.0 |
| 20260505112015 | 55 | 0 | 0.0 | 0.0 | 0.00 | 0.08 | 0.08 | 94 | 1014.0 |
| 20260505111536 | 55 | 0 | 0.0 | 0.0 | 0.00 | 0.08 | 0.08 | 94 | 1014.0 |
| 20260505111015 | 55 | 0 | 0.0 | 0.0 | 0.00 | 0.08 | 0.08 | 94 | 1014.0 |
| 20260505110518 | 56 | 0 | 0.0 | 0.0 | 0.00 | 0.08 | 0.08 | 94 | 1014.0 |
| 20260505102018 | 56 | 0 | 0.0 | 2.0 | 0.00 | 0.08 | 0.08 | 93 | 1014.1 |
| 20260505101535 | 57 | 63 | 0.0 | 2.0 | 0.00 | 0.08 | 0.08 | 93 | 1014.2 |
| 20260505101018 | 57 | 0 | 0.0 | 2.0 | 0.00 | 0.08 | 0.08 | 93 | 1014.1 |
| 20260505100519 | 56 | 0 | 0.0 | 0.0 | 0.00 | 0.08 | 0.08 | 93 | 1014.2 |
| 20260505100037 | 56 | 0 | 0.0 | 0.0 | 0.00 | 0.08 | 0.08 | 93 | 1014.2 |
| 20260505095517 | 56 | 0 | 0.0 | 1.0 | 0.00 | 0.08 | 0.08 | 93 | 1014.2 |
| 20260505095016 | 56 | 0 | 0.0 | 1.0 | 0.01 | 0.08 | 0.08 | 92 | 1014.3 |
| 20260505094533 | 56 | 0 | 0.0 | 1.0 | 0.01 | 0.08 | 0.08 | 92 | 1014.3 |
| 20260505094015 | 56 | 0 | 0.0 | 1.0 | 0.04 | 0.08 | 0.08 | 92 | 1014.3 |
| 20260505093517 | 57 | 0 | 0.0 | 2.0 | 0.05 | 0.08 | 0.08 | 92 | 1014.4 |
| 20260505093034 | 57 | 0 | 0.0 | 2.0 | 0.07 | 0.08 | 0.08 | 92 | 1014.4 |
| 20260505092517 | 57 | 0 | 0.0 | 2.0 | 0.08 | 0.08 | 0.08 | 92 | 1014.4 |
| 20260505092017 | 57 | 0 | 0.0 | 2.0 | 0.08 | 0.08 | 0.08 | 92 | 1014.5 |
| 20260505091537 | 57 | 0 | 0.0 | 2.0 | 0.08 | 0.08 | 0.08 | 91 | 1014.5 |
| 20260505091014 | 57 | 0 | 0.0 | 2.0 | 0.08 | 0.08 | 0.08 | 91 | 1014.5 |
| 20260505090514 | 57 | 0 | 0.0 | 3.0 | 0.08 | 0.08 | 0.08 | 91 | 1014.6 |
| 20260505090032 | 57 | 122 | 0.0 | 3.0 | 0.08 | 0.08 | 0.08 | 91 | 1014.7 |
| 20260505085518 | 57 | 0 | 0.0 | 2.0 | 0.08 | 0.08 | 0.08 | 90 | 1014.7 |
| 20260505085017 | 57 | 115 | 0.0 | 2.0 | 0.07 | 0.07 | 0.07 | 89 | 1014.8 |
| 20260505084554 | 58 | 112 | 0.0 | 2.0 | 0.07 | 0.07 | 0.07 | 89 | 1014.9 |
| 20260505084017 | 58 | 0 | 0.0 | 2.0 | 0.04 | 0.04 | 0.04 | 88 | 1014.9 |
| 20260505083518 | 58 | 0 | 0.0 | 2.0 | 0.02 | 0.02 | 0.02 | 86 | 1014.7 |
| 20260505083050 | 59 | 0 | 0.0 | 2.0 | 0.00 | 0.00 | 0.00 | 85 | 1014.8 |
| 20260505082515 | 59 | 0 | 0.0 | 2.0 | 0.00 | 0.00 | 0.00 | 84 | 1014.9 |
| 20260505082015 | 59 | 0 | 0.0 | 1.0 | 0.00 | 0.00 | 0.00 | 83 | 1014.8 |
| 20260505081546 | 59 | 0 | 0.0 | 1.0 | 0.00 | 0.00 | 0.00 | 83 | 1014.9 |
| 20260505081017 | 59 | 0 | 0.0 | 1.0 | 0.00 | 0.00 | 0.00 | 83 | 1014.9 |
| 20260505080517 | 59 | 0 | 0.0 | 2.0 | 0.00 | 0.00 | 0.00 | 82 | 1015.0 |
| 20260505080045 | 59 | 112 | 0.0 | 2.0 | 0.00 | 0.00 | 0.00 | 82 | 1015.1 |
| 20260505075518 | 60 | 112 | 0.0 | 2.0 | 0.00 | 0.00 | 0.00 | 82 | 1015.1 |
| 20260505075016 | 60 | 111 | 0.0 | 2.0 | 0.00 | 0.00 | 0.00 | 82 | 1015.1 |
| 20260505074535 | 60 | 121 | 0.0 | 2.0 | 0.00 | 0.00 | 0.00 | 82 | 1015.1 |
| 20260505074018 | 60 | 138 | 0.0 | 2.0 | 0.00 | 0.00 | 0.00 | 83 | 1015.2 |
| 20260505073518 | 60 | 0 | 0.0 | 0.0 | 0.00 | 0.00 | 0.00 | 83 | 1015.2 |
| 20260505073049 | 60 | 0 | 0.0 | 0.0 | 0.00 | 0.00 | 0.00 | 83 | 1015.1 |
| 20260505072518 | 60 | 0 | 0.0 | 0.0 | 0.00 | 0.00 | 0.00 | 83 | 1015.3 |
| 20260505072017 | 60 | 0 | 0.0 | 0.0 | 0.00 | 0.00 | 0.00 | 83 | 1015.3 |
| 20260505071543 | 60 | 0 | 0.0 | 0.0 | 0.00 | 0.00 | 0.00 | 83 | 1015.3 |
| 20260505071015 | 59 | 0 | 0.0 | 0.0 | 0.00 | 0.00 | 0.00 | 83 | 1015.3 |
| 20260505070518 | 59 | 0 | 0.0 | 0.0 | 0.00 | 0.00 | 0.00 | 83 | 1015.4 |
| 20260505070042 | 59 | 0 | 0.0 | 0.0 | 0.00 | 0.00 | 0.00 | 84 | 1015.4 |
| 20260505065517 | 59 | 0 | 0.0 | 0.0 | 0.00 | 0.00 | 0.00 | 84 | 1015.3 |
| 20260505065017 | 59 | 0 | 0.0 | 0.0 | 0.00 | 0.00 | 0.00 | 84 | 1015.4 |
| 20260505064536 | 59 | 0 | 0.0 | 2.0 | 0.00 | 0.00 | 0.00 | 84 | 1015.4 |
| 20260505064017 | 59 | 0 | 0.0 | 2.0 | 0.00 | 0.00 | 0.00 | 84 | 1015.5 |
| 20260505063517 | 59 | 194 | 0.0 | 2.0 | 0.00 | 0.00 | 0.00 | 84 | 1015.3 |
| 20260505063039 | 59 | 0 | 0.0 | 1.0 | 0.00 | 0.00 | 0.00 | 84 | 1015.5 |
| 20260505062517 | 60 | 0 | 0.0 | 1.0 | 0.00 | 0.00 | 0.00 | 84 | 1015.4 |
| 20260505062015 | 60 | 0 | 0.0 | 2.0 | 0.00 | 0.00 | 0.00 | 84 | 1015.5 |
| 20260505061533 | 60 | 0 | 0.0 | 2.0 | 0.00 | 0.00 | 0.00 | 84 | 1015.5 |
| 20260505061015 | 60 | 59 | 0.0 | 2.0 | 0.00 | 0.00 | 0.00 | 84 | 1015.6 |
| 20260505060517 | 60 | 0 | 0.0 | 2.0 | 0.00 | 0.00 | 0.00 | 84 | 1015.6 |
| 20260505060053 | 59 | 0 | 0.0 | 1.0 | 0.00 | 0.00 | 0.00 | 84 | 1015.7 |
| 20260505055517 | 59 | 0 | 0.0 | 1.0 | 0.00 | 0.00 | 0.00 | 84 | 1015.8 |
| 20260505055019 | 59 | 0 | 0.0 | 2.0 | 0.00 | 0.00 | 0.00 | 84 | 1015.6 |
| 20260505054536 | 59 | 0 | 0.0 | 2.0 | 0.00 | 0.00 | 0.00 | 84 | 1015.7 |
| 20260505054020 | 59 | 0 | 0.0 | 2.0 | 0.00 | 0.00 | 0.00 | 84 | 1015.8 |
| 20260505053518 | 59 | 40 | 0.0 | 2.0 | 0.00 | 0.00 | 0.00 | 84 | 1015.7 |
| 20260505053038 | 60 | 0 | 0.0 | 2.0 | 0.00 | 0.00 | 0.00 | 84 | 1015.9 |
| 20260505052515 | 60 | 0 | 0.0 | 2.0 | 0.00 | 0.00 | 0.00 | 84 | 1015.9 |
| 20260505052016 | 60 | 0 | 0.0 | 1.0 | 0.00 | 0.00 | 0.00 | 84 | 1016.0 |
| 20260505051534 | 60 | 0 | 0.0 | 2.0 | 0.00 | 0.00 | 0.00 | 84 | 1016.0 |
| 20260505051017 | 60 | 26 | 0.0 | 2.0 | 0.00 | 0.00 | 0.00 | 83 | 1016.1 |
| 20260505050516 | 60 | 0 | 0.0 | 3.0 | 0.00 | 0.00 | 0.00 | 83 | 1016.1 |
| 20260505041545 | 62 | 0 | 0.0 | 4.0 | 0.00 | 0.00 | 0.00 | 77 | 1016.1 |
| 20260505041014 | 62 | 0 | 0.0 | 4.0 | 0.00 | 0.00 | 0.00 | 76 | 1016.1 |
| 20260505040521 | 61 | 0 | 1.0 | 4.0 | 0.00 | 0.00 | 0.00 | 74 | 1016.0 |
| 20260505040036 | 61 | 66 | 0.0 | 2.0 | 0.00 | 0.00 | 0.00 | 73 | 1016.0 |
| 20260505035516 | 61 | 0 | 0.0 | 2.0 | 0.00 | 0.00 | 0.00 | 74 | 1016.0 |
| 20260505035015 | 61 | 66 | 0.0 | 2.0 | 0.00 | 0.00 | 0.00 | 74 | 1015.9 |
| 20260505034534 | 61 | 66 | 0.0 | 2.0 | 0.00 | 0.00 | 0.00 | 74 | 1015.9 |
| 20260505034017 | 61 | 66 | 0.0 | 2.0 | 0.00 | 0.00 | 0.00 | 73 | 1015.9 |
| 20260505033515 | 61 | 66 | 0.0 | 2.0 | 0.00 | 0.00 | 0.00 | 73 | 1015.9 |
| 20260505033035 | 61 | 66 | 0.0 | 1.0 | 0.00 | 0.00 | 0.00 | 73 | 1015.8 |
| 20260505032515 | 61 | 0 | 0.0 | 1.0 | 0.00 | 0.00 | 0.00 | 74 | 1015.7 |
| 20260505032021 | 61 | 0 | 0.0 | 1.0 | 0.00 | 0.00 | 0.00 | 75 | 1015.8 |
| 20260505031534 | 60 | 0 | 0.0 | 1.0 | 0.00 | 0.00 | 0.00 | 75 | 1015.7 |
| 20260505031018 | 60 | 0 | 0.0 | 1.0 | 0.00 | 0.00 | 0.00 | 75 | 1015.7 |
| 20260505030515 | 60 | 0 | 0.0 | 1.0 | 0.00 | 0.00 | 0.00 | 75 | 1015.7 |
| 20260505030039 | 60 | 0 | 0.0 | 1.0 | 0.00 | 0.00 | 0.00 | 75 | 1015.7 |
| 20260505025520 | 61 | 0 | 0.0 | 1.0 | 0.00 | 0.00 | 0.00 | 75 | 1015.6 |
| 20260505025014 | 61 | 66 | 0.0 | 1.0 | 0.00 | 0.00 | 0.00 | 75 | 1015.5 |
| 20260505024532 | 61 | 0 | 0.0 | 1.0 | 0.00 | 0.00 | 0.00 | 75 | 1015.4 |
| 20260505024015 | 61 | 66 | 0.0 | 1.0 | 0.00 | 0.00 | 0.00 | 75 | 1015.4 |
| 20260505023516 | 61 | 0 | 0.0 | 1.0 | 0.00 | 0.00 | 0.00 | 75 | 1015.4 |
| 20260505023034 | 61 | 66 | 0.0 | 2.0 | 0.00 | 0.00 | 0.00 | 74 | 1015.5 |
| 20260505022515 | 61 | 0 | 0.0 | 2.0 | 0.00 | 0.00 | 0.00 | 74 | 1015.5 |
| 20260505022016 | 61 | 66 | 0.0 | 1.0 | 0.00 | 0.00 | 0.00 | 74 | 1015.6 |
| 20260505021532 | 61 | 0 | 0.0 | 1.0 | 0.00 | 0.00 | 0.00 | 74 | 1015.6 |
| 20260505021015 | 62 | 0 | 0.0 | 2.0 | 0.00 | 0.00 | 0.00 | 73 | 1015.6 |
| 20260505020516 | 62 | 66 | 0.0 | 3.0 | 0.00 | 0.00 | 0.00 | 73 | 1015.6 |
| 20260505020039 | 62 | 66 | 0.0 | 3.0 | 0.00 | 0.00 | 0.00 | 72 | 1015.5 |
| 20260505015516 | 63 | 72 | 0.0 | 3.0 | 0.00 | 0.00 | 0.00 | 71 | 1015.5 |
| 20260505015016 | 64 | 338 | 1.0 | 3.0 | 0.00 | 0.00 | 0.00 | 71 | 1015.6 |
| 20260505014548 | 64 | 40 | 0.0 | 2.0 | 0.00 | 0.00 | 0.00 | 72 | 1015.5 |
| 20260505014015 | 64 | 0 | 0.0 | 2.0 | 0.00 | 0.00 | 0.00 | 72 | 1015.6 |
| 20260505013518 | 63 | 17 | 0.0 | 3.0 | 0.00 | 0.00 | 0.00 | 72 | 1015.7 |
| 20260505013042 | 63 | 86 | 0.0 | 3.0 | 0.00 | 0.00 | 0.00 | 72 | 1015.7 |
| 20260505012518 | 64 | 82 | 1.0 | 4.0 | 0.00 | 0.00 | 0.00 | 72 | 1015.6 |